When you browse on this site, cookies collect data to enhance your experience and personalize the content and advertising you see.
Visit our Privacy Policy to learn more. By continuing to use the site, you agree to this use of cookies and data.

Hourly Weather Lenguazaque

Today, 4 August, Tuesday

Time Temperature Precipitation Wind Pressure Humidity
00:00 +11°C° 0 mm 1 mps 553 mmHg 95%
01:00 +11°C° 0 mm 1 mps 553 mmHg 94%
02:00 +11°C° 0 mm 1 mps 553 mmHg 94%
03:00 +11°C° 0 mm 1 mps 553 mmHg 94%
04:00 +11°C° 0 mm 1 mps 553 mmHg 94%
05:00 +11°C° 0.1 mm 1 mps 553 mmHg 93%
06:00 +12°C° 0.1 mm 2 mps 553 mmHg 93%
07:00 +12°C° 0.1 mm 2 mps 553 mmHg 92%
08:00 +13°C° 0 mm 2 mps 554 mmHg 84%
09:00 +15°C° 0 mm 2 mps 555 mmHg 75%
10:00 +17°C° 0 mm 2 mps 556 mmHg 67%
11:00 +17°C° 0.1 mm 3 mps 556 mmHg 65%
12:00 +18°C° 0.1 mm 3 mps 556 mmHg 64%
13:00 +18°C° 0.1 mm 3 mps 556 mmHg 62%
14:00 +18°C° 0.3 mm 3 mps 555 mmHg 65%
15:00 +17°C° 0.3 mm 3 mps 554 mmHg 68%
16:00 +17°C° 0.3 mm 2 mps 554 mmHg 71%
17:00 +15°C° 0.2 mm 2 mps 553 mmHg 79%
18:00 +13°C° 0.2 mm 2 mps 552 mmHg 87%
19:00 +11°C° 0.2 mm 1 mps 552 mmHg 95%
20:00 +11°C° 0 mm 1 mps 552 mmHg 95%
21:00 +11°C° 0 mm 1 mps 553 mmHg 95%
22:00 +11°C° 0 mm 1 mps 553 mmHg 94%
23:00 +11°C° 0 mm 1 mps 553 mmHg 94%

Tomorrow, 5 August, Wednesday

Time Temperature Precipitation Wind Pressure Humidity
00:00 +11°C° 0 mm 1 mps 553 mmHg 93%
01:00 +11°C° 0 mm 1 mps 553 mmHg 93%
02:00 +11°C° 0 mm 1 mps 552 mmHg 93%
03:00 +10°C° 0 mm 1 mps 552 mmHg 94%
04:00 +10°C° 0 mm 1 mps 551 mmHg 95%
05:00 +10°C° 0 mm 1 mps 552 mmHg 94%
06:00 +10°C° 0 mm 1 mps 552 mmHg 93%
07:00 +11°C° 0 mm 1 mps 552 mmHg 92%
08:00 +12°C° 0 mm 1 mps 553 mmHg 87%
09:00 +13°C° 0 mm 2 mps 554 mmHg 81%
10:00 +15°C° 0 mm 2 mps 555 mmHg 76%
11:00 +16°C° 0.1 mm 2 mps 555 mmHg 72%
12:00 +16°C° 0.1 mm 3 mps 555 mmHg 68%
13:00 +17°C° 0.1 mm 3 mps 555 mmHg 65%
14:00 +16°C° 0.2 mm 3 mps 554 mmHg 70%
15:00 +15°C° 0.2 mm 2 mps 553 mmHg 76%
16:00 +14°C° 0.2 mm 2 mps 552 mmHg 81%
17:00 +13°C° 0 mm 2 mps 552 mmHg 85%
18:00 +12°C° 0 mm 1 mps 552 mmHg 89%
19:00 +12°C° 0 mm 1 mps 551 mmHg 93%
20:00 +11°C° 0 mm 1 mps 552 mmHg 93%
21:00 +11°C° 0 mm 1 mps 552 mmHg 94%
22:00 +10°C° 0 mm 1 mps 552 mmHg 95%
23:00 +10°C° 0 mm 1 mps 552 mmHg 95%

Day after tomorrow, 6 August, Thursday

Time Temperature Precipitation Wind Pressure Humidity
00:00 +10°C° 0 mm 1 mps 551 mmHg 95%
01:00 +9°C° 0 mm 1 mps 551 mmHg 96%
02:00 +10°C° 0 mm 1 mps 551 mmHg 95%
03:00 +10°C° 0 mm 1 mps 551 mmHg 95%
04:00 +10°C° 0 mm 1 mps 551 mmHg 95%
05:00 +10°C° 0 mm 1 mps 551 mmHg 94%
06:00 +11°C° 0 mm 1 mps 552 mmHg 94%
07:00 +11°C° 0 mm 1 mps 552 mmHg 93%
08:00 +11°C° 0.1 mm 1 mps 553 mmHg 91%
09:00 +12°C° 0.1 mm 1 mps 553 mmHg 89%
10:00 +13°C° 0.1 mm 1 mps 554 mmHg 87%
11:00 +13°C° 0.1 mm 2 mps 553 mmHg 84%
12:00 +14°C° 0.1 mm 2 mps 553 mmHg 81%
13:00 +15°C° 0.1 mm 2 mps 553 mmHg 78%
14:00 +15°C° 0.1 mm 2 mps 553 mmHg 77%
15:00 +15°C° 0.1 mm 2 mps 552 mmHg 76%
16:00 +15°C° 0.1 mm 2 mps 552 mmHg 75%
17:00 +13°C° 0.1 mm 2 mps 552 mmHg 81%
18:00 +12°C° 0.1 mm 2 mps 551 mmHg 88%
19:00 +10°C° 0.1 mm 1 mps 551 mmHg 95%
20:00 +10°C° 0 mm 1 mps 551 mmHg 95%
21:00 +10°C° 0 mm 1 mps 552 mmHg 95%
22:00 +10°C° 0 mm 1 mps 552 mmHg 96%
23:00 +10°C° 0 mm 1 mps 552 mmHg 96%

7 August, Friday

Time Temperature Precipitation Wind Pressure Humidity
00:00 +10°C° 0 mm 1 mps 552 mmHg 95%
01:00 +11°C° 0 mm 1 mps 552 mmHg 95%
02:00 +11°C° 0 mm 1 mps 552 mmHg 95%
03:00 +11°C° 0 mm 1 mps 552 mmHg 95%
04:00 +10°C° 0 mm 1 mps 552 mmHg 96%
05:00 +11°C° 0 mm 1 mps 552 mmHg 94%
06:00 +11°C° 0 mm 1 mps 552 mmHg 93%
07:00 +12°C° 0 mm 1 mps 553 mmHg 92%
08:00 +12°C° 0.1 mm 2 mps 553 mmHg 89%
09:00 +13°C° 0.1 mm 2 mps 554 mmHg 86%
10:00 +14°C° 0.1 mm 2 mps 554 mmHg 83%
11:00 +14°C° 0.1 mm 2 mps 554 mmHg 83%
12:00 +14°C° 0.1 mm 2 mps 553 mmHg 84%
13:00 +14°C° 0.1 mm 2 mps 553 mmHg 84%
14:00 +13°C° 0.2 mm 2 mps 552 mmHg 86%
15:00 +13°C° 0.2 mm 2 mps 552 mmHg 89%
16:00 +13°C° 0.2 mm 1 mps 551 mmHg 91%
17:00 +12°C° 0 mm 2 mps 551 mmHg 92%
18:00 +10°C° 0 mm 2 mps 551 mmHg 94%
19:00 +10°C° 0 mm 2 mps 552 mmHg 95%
20:00 +11°C° 0 mm 1 mps 552 mmHg 96%
21:00 +10°C° 0 mm 1 mps 552 mmHg 96%
22:00 +10°C° 0 mm 1 mps 553 mmHg 96%
23:00 +10°C° 0 mm 1 mps 552 mmHg 96%

8 August, Saturday

Time Temperature Precipitation Wind Pressure Humidity
00:00 +10°C° 0 mm 1 mps 552 mmHg 95%
01:00 +10°C° 0 mm 1 mps 552 mmHg 95%
02:00 +10°C° 0.1 mm 1 mps 552 mmHg 95%
03:00 +10°C° 0.1 mm 1 mps 552 mmHg 95%
04:00 +10°C° 0.1 mm 1 mps 552 mmHg 95%
05:00 +10°C° 0.1 mm 1 mps 552 mmHg 95%
06:00 +11°C° 0.1 mm 1 mps 553 mmHg 95%
07:00 +11°C° 0.1 mm 1 mps 553 mmHg 94%
08:00 +12°C° 0.1 mm 1 mps 554 mmHg 91%
09:00 +13°C° 0.1 mm 1 mps 554 mmHg 88%
10:00 +14°C° 0.1 mm 2 mps 555 mmHg 85%
11:00 +14°C° 0.1 mm 2 mps 555 mmHg 82%
12:00 +15°C° 0.1 mm 2 mps 554 mmHg 80%
13:00 +15°C° 0.1 mm 2 mps 554 mmHg 78%
14:00 +15°C° 0.1 mm 2 mps 554 mmHg 76%
15:00 +16°C° 0.1 mm 2 mps 553 mmHg 75%
16:00 +16°C° 0.1 mm 2 mps 553 mmHg 74%
17:00 +14°C° 0.1 mm 2 mps 553 mmHg 81%
18:00 +13°C° 0.1 mm 2 mps 552 mmHg 88%
19:00 +10°C° 0.1 mm 2 mps 552 mmHg 94%
20:00 +11°C° 0 mm 1 mps 552 mmHg 95%
21:00 +11°C° 0 mm 1 mps 553 mmHg 95%
22:00 +11°C° 0 mm 1 mps 553 mmHg 96%
23:00 +11°C° 0 mm 1 mps 553 mmHg 95%

9 August, Sunday

Time Temperature Precipitation Wind Pressure Humidity
00:00 +11°C° 0 mm 1 mps 552 mmHg 94%
01:00 +11°C° 0 mm 1 mps 552 mmHg 94%
02:00 +11°C° 0.2 mm 1 mps 552 mmHg 94%
03:00 +11°C° 0.2 mm 1 mps 552 mmHg 94%
04:00 +11°C° 0.2 mm 1 mps 552 mmHg 94%
05:00 +11°C° 0.1 mm 1 mps 552 mmHg 94%
06:00 +11°C° 0.1 mm 1 mps 553 mmHg 94%
07:00 +11°C° 0.1 mm 1 mps 553 mmHg 95%
08:00 +12°C° 0.2 mm 1 mps 553 mmHg 93%
09:00 +12°C° 0.2 mm 1 mps 554 mmHg 91%
10:00 +13°C° 0.2 mm 1 mps 554 mmHg 89%
11:00 +13°C° 0.1 mm 2 mps 554 mmHg 87%
12:00 +14°C° 0.1 mm 2 mps 553 mmHg 84%
13:00 +14°C° 0.1 mm 2 mps 553 mmHg 82%
14:00 +15°C° 0.1 mm 2 mps 553 mmHg 80%
15:00 +15°C° 0.1 mm 2 mps 553 mmHg 77%
16:00 +16°C° 0.1 mm 2 mps 552 mmHg 75%
17:00 +14°C° 0.1 mm 2 mps 552 mmHg 82%
18:00 +12°C° 0.1 mm 1 mps 551 mmHg 88%
19:00 +11°C° 0.1 mm 1 mps 551 mmHg 95%
20:00 +11°C° 0 mm 1 mps 551 mmHg 95%
21:00 +11°C° 0 mm 1 mps 552 mmHg 94%
22:00 +11°C° 0 mm 1 mps 552 mmHg 94%
23:00 +10°C° 0 mm 1 mps 552 mmHg 94%
Show more